South Bend Regional Airport
KSBN : now visible

Airfield :











YOU CAN JOIN US ON...

 
LOGIN :

Register | Disclaimer

   EN    FR    IT 

 









Legend :    VFR   Marginal VFR   IFR   Intensive IFR   Very Intensive IFR
Visi :
Ceiling :
>= 8 km
>= 3000ft
5 to 8 km
1000 to 3000 ft
1500m to 5 km
500 to 1000 ft
800 to 1500m
200 to 500 ft
< 800m
< 200 ft
Symbols :   Thunderstorms  Fog  Heavy snow  Heavy precipitations  Wind > 20 kt






- Airport Elevation : 799 ft
- IATA code : SBN


KSBN - South Bend Regional

CURRENT METAR :
  • 270654Z AUTO 17006KT 10SM FEW085 OVC110 M03/M09 A3004 RMK AO2 SLP184 T10281089

EXPIRED METARs :
  • 270554Z AUTO 17003KT 10SM FEW120 M03/M09 A3007 RMK AO2 SLP191 T10331094 11022 21039 58007
  • 270454Z AUTO 18004KT 10SM SCT090 M04/M09 A3008 RMK AO2 SLP197 T10391094 400001039

TAF KSBN
Valid from the 27 at 06:00 until the 28 at 06:00 UTC


270520Z 2706/2806 17005KT P6SM BKN100
FM271300 15006KT P6SM OVC070
FM272200 20006KT P6SM OVC025
FM280100 24006KT P6SM OVC012
KZAU FIR / North America



MET'MAP, your aeronautical weather chart ! - Copyright ORBIFLY December 2007 - Disclaimer

ORBIFLY MET'MAP TEAM :

Programming & Development : Alexandra Zaïnal
Concept & original design : Baudouin d'Aumeries
Assistance for programming : Marc-Olivier Méhu
Technical & hardware support : Manuel Goepfert

Contact : metmap@orbifly.com




SOURCES & CREDITS :

   NOAA       Earth
Advisory